QPF
0.00 0.00 0.00 0.00 0.00 0.00 0.00 0.00 0.00 0.00 0.00 0.00 0.00 0.00 0.00 0.00 0.00 0.00 0.00 0.00 0.00 0.00 0.00 0.00 0.00 0.00 0.00 0.00 0.00 0.00 0.00 0.00 0.00 0.00 0.00 0.00 0.00 0.00 0.00 0.00 0.00 0.00 0.00 0.00
0.00 0.00 0.00 0.00 0.00 0.00 0.00 0.00 0.00 0.00 0.00 0.00 0.00 0.00 0.00 0.00 0.00 0.00 0.00 0.00 0.00 0.00 0.00 0.00 0.00 0.00 0.00 0.00 0.00 0.00 0.00 0.00 0.00 0.00 0.00 0.00 0.00 0.00 0.00 0.00 0.00 0.00 0.00 0.00
0.00 0.00 0.00 0.00 0.00 0.00 0.00 0.00 0.00 0.00 0.00 0.00 0.00 0.00 0.00 0.00 0.00 0.00 0.00 0.00 0.00 0.00 0.00 0.00 0.00 0.00 0.00 0.00 0.00 0.00 0.00 0.00 0.00 0.00 0.00 0.00 0.00 0.00 0.00 0.00 0.00 0.00 0.00 0.00
0.00 0.00 0.00 0.00 0.00 0.00 0.00 0.00 0.00 0.00 0.00 0.00 0.00 0.00 0.00 0.00 0.00 0.00 0.00 0.00 0.00 0.00 0.00 0.00 0.00 0.00 0.00 0.00 0.00 0.00 0.00 0.00 0.00 0.00 0.00 0.00 0.00 0.00 0.00 0.00 0.00 0.00 0.00 0.00
0.00 0.00 0.00 0.00 0.00 0.00 0.00 0.00 0.00 0.00 0.00 0.00 0.00 0.00 0.00 0.00 0.00 0.00 0.00 0.00 0.00 0.00 0.00 0.00 0.00 0.00 0.00 0.00 0.00 0.00 0.00 0.00 0.00 0.00 0.00 0.00 0.00 0.00 0.00 0.00 0.00 0.00 0.00 0.00
0.00 0.00 0.00 0.00 0.00 0.00 0.00 0.00 0.00 0.00 0.00 0.00 0.00 0.00 0.00 0.00 0.00 0.00 0.00 0.00 0.00 0.00 0.00 0.00 0.00 0.00 0.00 0.00 0.00 0.00 0.00 0.00 0.00 0.00 0.00 0.00 0.00 0.00 0.00 0.00 0.00 0.00 0.00 0.01
0.00 0.00 0.00 0.00 0.00 0.00 0.00 0.00 0.00 0.00 0.00 0.00 0.00 0.00 0.00 0.00 0.00 0.00 0.00 0.00 0.00 0.00 0.00 0.00 0.00 0.00 0.00 0.00 0.00 0.00 0.00 0.00 0.00 0.00 0.00 0.00 0.00 0.00 0.00 0.00 0.00 0.00 0.00 0.01
0.00 0.00 0.00 0.00 0.00 0.00 0.00 0.00 0.00 0.00 0.00 0.00 0.00 0.00 0.00 0.00 0.00 0.00 0.00 0.00 0.00 0.00 0.00 0.00 0.00 0.00 0.00 0.00 0.00 0.00 0.00 0.00 0.00 0.00 0.00 0.00 0.00 0.00 0.00 0.00 0.00 0.00 0.01 0.01
0.00 0.00 0.00 0.00 0.00 0.00 0.00 0.00 0.00 0.00 0.00 0.00 0.00 0.00 0.00 0.00 0.00 0.00 0.00 0.00 0.00 0.00 0.00 0.00 0.00 0.00 0.00 0.00 0.00 0.00 0.00 0.00 0.00 0.00 0.00 0.00 0.00 0.00 0.00 0.00 0.00 0.00 0.01 0.01
0.00 0.00 0.00 0.00 0.00 0.00 0.00 0.00 0.00 0.00 0.00 0.00 0.00 0.00 0.00 0.00 0.00 0.00 0.00 0.00 0.00 0.00 0.00 0.00 0.00 0.00 0.00 0.00 0.00 0.00 0.00 0.00 0.00 0.00 0.00 0.00 0.00 0.00 0.00 0.00 0.00 0.00 0.01 0.01
0.00 0.00 0.00 0.00 0.00 0.00 0.00 0.00 0.00 0.00 0.00 0.00 0.00 0.00 0.00 0.00 0.00 0.00 0.00 0.00 0.00 0.00 0.00 0.00 0.00 0.00 0.00 0.00 0.00 0.00 0.00 0.00 0.00 0.00 0.00 0.00 0.00 0.00 0.00 0.00 0.00 0.00 0.01 0.01
0.00 0.00 0.00 0.00 0.00 0.00 0.00 0.00 0.00 0.00 0.00 0.00 0.00 0.00 0.00 0.00 0.00 0.00 0.00 0.00 0.00 0.00 0.00 0.00 0.00 0.00 0.00 0.00 0.00 0.00 0.00 0.00 0.00 0.00 0.00 0.00 0.00 0.00 0.00 0.00 0.00 0.00 0.00 0.01
0.00 0.00 0.00 0.00 0.00 0.00 0.00 0.00 0.00 0.00 0.00 0.00 0.00 0.00 0.00 0.00 0.00 0.00 0.00 0.00 0.00 0.00 0.00 0.00 0.00 0.00 0.00 0.00 0.00 0.00 0.00 0.00 0.00 0.00 0.00 0.00 0.00 0.00 0.00 0.00 0.00 0.00 0.00 0.00
0.00 0.00 0.00 0.00 0.00 0.00 0.00 0.00 0.00 0.00 0.00 0.00 0.00 0.00 0.00 0.00 0.00 0.00 0.00 0.00 0.00 0.00 0.00 0.00 0.00 0.00 0.00 0.00 0.00 0.00 0.00 0.00 0.00 0.00 0.00 0.00 0.00 0.00 0.00 0.00 0.00 0.00 0.00 0.01
0.00 0.00 0.00 0.00 0.00 0.00 0.00 0.00 0.00 0.00 0.00 0.00 0.00 0.00 0.00 0.00 0.00 0.00 0.00 0.00 0.00 0.00 0.00 0.00 0.00 0.00 0.00 0.00 0.00 0.00 0.00 0.00 0.00 0.00 0.00 0.00 0.00 0.00 0.00 0.01 0.01 0.01 0.01 0.01
0.00 0.00 0.00 0.00 0.00 0.00 0.00 0.00 0.00 0.00 0.00 0.00 0.00 0.00 0.00 0.00 0.00 0.00 0.00 0.00 0.00 0.00 0.00 0.00 0.00 0.00 0.00 0.00 0.00 0.00 0.00 0.00 0.00 0.00 0.00 0.00 0.00 0.01 0.01 0.01 0.01 0.02 0.02 0.02
0.00 0.00 0.00 0.00 0.00 0.00 0.00 0.00 0.00 0.00 0.00 0.00 0.00 0.00 0.00 0.00 0.00 0.00 0.00 0.00 0.00 0.00 0.00 0.00 0.00 0.00 0.00 0.00 0.00 0.00 0.00 0.00 0.00 0.00 0.00 0.00 0.01 0.01 0.01 0.01 0.01 0.01 0.02 0.02
0.00 0.00 0.00 0.00 0.00 0.00 0.00 0.00 0.00 0.00 0.00 0.00 0.00 0.00 0.00 0.00 0.00 0.00 0.00 0.00 0.00 0.00 0.00 0.00 0.00 0.00 0.00 0.00 0.00 0.00 0.00 0.00 0.00 0.00 0.00 0.00 0.01 0.00 0.00 0.00 0.01 0.01 0.02 0.02
0.00 0.00 0.00 0.00 0.00 0.00 0.00 0.00 0.00 0.00 0.00 0.00 0.00 0.00 0.00 0.00 0.00 0.00 0.00 0.00 0.00 0.00 0.00 0.00 0.00 0.00 0.00 0.00 0.00 0.00 0.00 0.00 0.00 0.00 0.00 0.00 0.00 0.01 0.01 0.01 0.01 0.02 0.02 0.03
0.00 0.00 0.00 0.00 0.00 0.00 0.00 0.00 0.00 0.00 0.00 0.00 0.00 0.00 0.00 0.00 0.00 0.00 0.00 0.00 0.00 0.00 0.00 0.00 0.00 0.00 0.00 0.00 0.00 0.00 0.00 0.00 0.00 0.00 0.01 0.01 0.01 0.01 0.01 0.01 0.01 0.02 0.02 0.03
0.00 0.00 0.00 0.00 0.00 0.00 0.00 0.00 0.00 0.00 0.00 0.00 0.00 0.00 0.00 0.00 0.00 0.00 0.00 0.00 0.00 0.00 0.00 0.00 0.00 0.00 0.00 0.00 0.00 0.00 0.00 0.00 0.01 0.01 0.01 0.01 0.01 0.01 0.01 0.01 0.01 0.01 0.02 0.02
0.00 0.00 0.00 0.00 0.00 0.00 0.00 0.00 0.00 0.00 0.00 0.00 0.00 0.00 0.00 0.00 0.00 0.00 0.00 0.00 0.00 0.00 0.00 0.00 0.00 0.00 0.00 0.00 0.00 0.00 0.00 0.00 0.01 0.01 0.01 0.01 0.01 0.01 0.01 0.01 0.01 0.01 0.01 0.02
0.00 0.00 0.00 0.00 0.00 0.00 0.00 0.00 0.00 0.00 0.00 0.00 0.00 0.00 0.00 0.00 0.00 0.00 0.00 0.00 0.00 0.00 0.00 0.00 0.00 0.00 0.00 0.00 0.00 0.00 0.00 0.00 0.00 0.01 0.01 0.01 0.01 0.01 0.01 0.01 0.01 0.01 0.02 0.03
0.00 0.00 0.00 0.00 0.00 0.00 0.00 0.00 0.00 0.00 0.00 0.00 0.00 0.00 0.00 0.00 0.00 0.00 0.00 0.00 0.00 0.00 0.00 0.00 0.00 0.00 0.00 0.00 0.00 0.00 0.00 0.00 0.01 0.01 0.01 0.01 0.01 0.01 0.01 0.01 0.01 0.01 0.02 0.03
0.00 0.00 0.00 0.00 0.00 0.00 0.00 0.00 0.00 0.00 0.00 0.00 0.00 0.00 0.00 0.00 0.00 0.00 0.00 0.00 0.00 0.00 0.00 0.00 0.00 0.00 0.00 0.00 0.00 0.01 0.01 0.01 0.01 0.01 0.01 0.02 0.02 0.02 0.02 0.02 0.02 0.02 0.03 0.04
0.00 0.00 0.00 0.00 0.00 0.00 0.00 0.00 0.00 0.00 0.00 0.00 0.00 0.00 0.00 0.00 0.00 0.00 0.00 0.00 0.00 0.00 0.00 0.00 0.00 0.00 0.00 0.00 0.00 0.00 0.00 0.00 0.01 0.01 0.01 0.02 0.02 0.02 0.02 0.02 0.02 0.02 0.03 0.04
0.00 0.00 0.00 0.00 0.00 0.00 0.00 0.00 0.00 0.00 0.00 0.00 0.00 0.00 0.00 0.00 0.00 0.00 0.00 0.00 0.00 0.00 0.00 0.00 0.00 0.00 0.00 0.00 0.00 0.00 0.00 0.01 0.01 0.01 0.02 0.02 0.02 0.02 0.02 0.02 0.02 0.03 0.03 0.03
MSLP
1009.43 1009.60 1009.76 1009.93 1010.14 1010.42 1010.79 1011.25 1011.78 1012.37 1013.00 1013.63 1014.25 1014.81 1015.33 1015.78 1016.17 1016.50 1016.77 1016.99 1017.16 1017.29 1017.37 1017.41 1017.42 1017.40 1017.37 1017.32 1017.28 1017.22 1017.16 1017.09 1016.98 1016.84 1016.64 1016.39 1016.08 1015.72 1015.31 1014.87 1014.41 1013.95 1013.51 1013.08
1009.54 1009.69 1009.79 1009.87 1009.95 1010.08 1010.30 1010.62 1011.04 1011.57 1012.18 1012.85 1013.54 1014.21 1014.85 1015.43 1015.93 1016.36 1016.71 1016.98 1017.20 1017.35 1017.47 1017.56 1017.62 1017.66 1017.69 1017.71 1017.72 1017.72 1017.69 1017.63 1017.53 1017.38 1017.18 1016.92 1016.61 1016.25 1015.84 1015.40 1014.93 1014.45 1013.96 1013.46
1009.76 1009.88 1009.91 1009.88 1009.82 1009.80 1009.86 1010.04 1010.35 1010.81 1011.40 1012.10 1012.85 1013.62 1014.37 1015.07 1015.68 1016.20 1016.62 1016.96 1017.21 1017.40 1017.55 1017.66 1017.76 1017.84 1017.92 1017.97 1018.01 1018.03 1018.01 1017.95 1017.85 1017.69 1017.48 1017.22 1016.91 1016.56 1016.17 1015.74 1015.29 1014.81 1014.31 1013.80
1009.98 1010.05 1009.99 1009.84 1009.65 1009.48 1009.40 1009.45 1009.67 1010.07 1010.64 1011.35 1012.17 1013.03 1013.89 1014.70 1015.41 1016.03 1016.52 1016.91 1017.20 1017.42 1017.59 1017.72 1017.83 1017.93 1018.02 1018.08 1018.13 1018.14 1018.11 1018.04 1017.92 1017.74 1017.52 1017.25 1016.95 1016.61 1016.25 1015.86 1015.44 1014.99 1014.52 1014.02
1010.06 1010.05 1009.90 1009.64 1009.32 1009.03 1008.83 1008.78 1008.93 1009.30 1009.87 1010.62 1011.50 1012.45 1013.41 1014.32 1015.14 1015.84 1016.40 1016.84 1017.17 1017.40 1017.58 1017.71 1017.82 1017.92 1018.00 1018.06 1018.09 1018.08 1018.03 1017.92 1017.77 1017.57 1017.33 1017.05 1016.75 1016.43 1016.10 1015.75 1015.37 1014.98 1014.55 1014.09
1009.88 1009.79 1009.55 1009.19 1008.79 1008.41 1008.14 1008.04 1008.15 1008.51 1009.11 1009.91 1010.87 1011.90 1012.96 1013.96 1014.86 1015.64 1016.26 1016.74 1017.09 1017.34 1017.52 1017.65 1017.75 1017.83 1017.89 1017.93 1017.94 1017.90 1017.82 1017.68 1017.50 1017.26 1017.00 1016.71 1016.40 1016.09 1015.78 1015.46 1015.13 1014.78 1014.40 1013.99
1009.41 1009.24 1008.92 1008.50 1008.05 1007.63 1007.34 1007.24 1007.37 1007.76 1008.41 1009.27 1010.30 1011.42 1012.55 1013.63 1014.60 1015.43 1016.10 1016.60 1016.97 1017.23 1017.40 1017.52 1017.61 1017.68 1017.73 1017.75 1017.73 1017.67 1017.56 1017.40 1017.18 1016.91 1016.62 1016.31 1015.99 1015.67 1015.36 1015.06 1014.75 1014.44 1014.10 1013.74
1008.69 1008.46 1008.09 1007.65 1007.19 1006.79 1006.53 1006.47 1006.66 1007.12 1007.83 1008.77 1009.86 1011.05 1012.24 1013.36 1014.37 1015.23 1015.92 1016.44 1016.81 1017.07 1017.24 1017.36 1017.44 1017.50 1017.54 1017.55 1017.53 1017.45 1017.32 1017.13 1016.89 1016.60 1016.27 1015.93 1015.59 1015.25 1014.92 1014.61 1014.31 1014.00 1013.68 1013.34
1007.84 1007.56 1007.18 1006.76 1006.34 1006.01 1005.83 1005.86 1006.13 1006.67 1007.46 1008.45 1009.60 1010.81 1012.03 1013.17 1014.19 1015.04 1015.73 1016.24 1016.61 1016.86 1017.03 1017.15 1017.24 1017.30 1017.35 1017.36 1017.34 1017.27 1017.13 1016.93 1016.66 1016.34 1015.99 1015.61 1015.23 1014.86 1014.50 1014.16 1013.83 1013.50 1013.17 1012.83
1006.98 1006.69 1006.34 1005.97 1005.63 1005.40 1005.33 1005.47 1005.84 1006.46 1007.31 1008.35 1009.51 1010.73 1011.93 1013.04 1014.03 1014.86 1015.51 1016.01 1016.36 1016.61 1016.78 1016.91 1017.01 1017.09 1017.15 1017.18 1017.17 1017.10 1016.97 1016.76 1016.48 1016.14 1015.76 1015.34 1014.92 1014.50 1014.09 1013.70 1013.32 1012.95 1012.59 1012.21
1006.24 1005.96 1005.66 1005.37 1005.15 1005.04 1005.09 1005.35 1005.82 1006.51 1007.40 1008.44 1009.59 1010.76 1011.91 1012.97 1013.89 1014.66 1015.27 1015.73 1016.07 1016.31 1016.48 1016.62 1016.74 1016.84 1016.93 1016.98 1016.98 1016.92 1016.79 1016.58 1016.29 1015.93 1015.51 1015.06 1014.59 1014.12 1013.66 1013.22 1012.78 1012.36 1011.94 1011.52
1005.66 1005.42 1005.19 1005.01 1004.91 1004.93 1005.10 1005.46 1006.01 1006.75 1007.64 1008.67 1009.76 1010.87 1011.93 1012.89 1013.74 1014.44 1014.99 1015.41 1015.72 1015.95 1016.13 1016.28 1016.42 1016.54 1016.64 1016.71 1016.73 1016.67 1016.54 1016.31 1016.01 1015.63 1015.19 1014.71 1014.20 1013.69 1013.18 1012.69 1012.20 1011.73 1011.26 1010.78
1005.20 1005.01 1004.88 1004.81 1004.83 1004.98 1005.26 1005.71 1006.31 1007.07 1007.95 1008.93 1009.94 1010.96 1011.92 1012.78 1013.54 1014.16 1014.65 1015.03 1015.32 1015.55 1015.73 1015.89 1016.04 1016.17 1016.28 1016.35 1016.37 1016.30 1016.16 1015.92 1015.60 1015.20 1014.74 1014.24 1013.71 1013.17 1012.64 1012.11 1011.59 1011.07 1010.56 1010.04
1004.76 1004.65 1004.61 1004.66 1004.81 1005.06 1005.45 1005.96 1006.60 1007.36 1008.21 1009.12 1010.06 1010.97 1011.83 1012.61 1013.27 1013.83 1014.27 1014.62 1014.89 1015.11 1015.30 1015.47 1015.62 1015.75 1015.85 1015.90 1015.90 1015.82 1015.65 1015.39 1015.05 1014.63 1014.16 1013.65 1013.12 1012.57 1012.03 1011.49 1010.96 1010.42 1009.88 1009.33
1004.24 1004.22 1004.29 1004.45 1004.71 1005.07 1005.53 1006.10 1006.76 1007.51 1008.33 1009.18 1010.04 1010.87 1011.64 1012.34 1012.94 1013.44 1013.86 1014.18 1014.45 1014.67 1014.85 1015.02 1015.16 1015.28 1015.36 1015.38 1015.35 1015.23 1015.03 1014.75 1014.39 1013.97 1013.49 1012.98 1012.46 1011.93 1011.40 1010.87 1010.34 1009.81 1009.25 1008.68
1003.59 1003.66 1003.83 1004.10 1004.46 1004.90 1005.43 1006.05 1006.73 1007.47 1008.26 1009.07 1009.87 1010.63 1011.35 1011.99 1012.55 1013.03 1013.42 1013.74 1014.01 1014.23 1014.41 1014.57 1014.70 1014.79 1014.84 1014.83 1014.75 1014.60 1014.37 1014.07 1013.69 1013.26 1012.80 1012.31 1011.81 1011.30 1010.80 1010.30 1009.79 1009.26 1008.70 1008.11
1002.81 1002.98 1003.24 1003.60 1004.04 1004.56 1005.14 1005.79 1006.49 1007.24 1008.01 1008.78 1009.55 1010.28 1010.96 1011.58 1012.12 1012.59 1012.98 1013.31 1013.58 1013.80 1013.99 1014.13 1014.24 1014.31 1014.33 1014.28 1014.17 1013.98 1013.73 1013.40 1013.02 1012.60 1012.15 1011.68 1011.21 1010.74 1010.27 1009.79 1009.30 1008.78 1008.22 1007.61
1001.99 1002.24 1002.58 1003.01 1003.51 1004.08 1004.71 1005.38 1006.10 1006.84 1007.60 1008.37 1009.11 1009.83 1010.50 1011.11 1011.66 1012.13 1012.54 1012.88 1013.16 1013.39 1013.57 1013.71 1013.80 1013.85 1013.83 1013.76 1013.62 1013.41 1013.14 1012.81 1012.43 1012.02 1011.59 1011.15 1010.71 1010.27 1009.82 1009.37 1008.89 1008.36 1007.79 1007.14
1001.28 1001.58 1001.96 1002.43 1002.97 1003.56 1004.20 1004.89 1005.61 1006.35 1007.11 1007.87 1008.61 1009.33 1010.00 1010.61 1011.17 1011.65 1012.07 1012.43 1012.72 1012.95 1013.14 1013.27 1013.35 1013.38 1013.35 1013.26 1013.11 1012.89 1012.62 1012.29 1011.93 1011.53 1011.12 1010.71 1010.29 1009.87 1009.44 1008.99 1008.50 1007.97 1007.36 1006.67
1000.80 1001.11 1001.51 1001.97 1002.51 1003.09 1003.72 1004.40 1005.10 1005.84 1006.59 1007.34 1008.08 1008.79 1009.46 1010.08 1010.64 1011.13 1011.56 1011.92 1012.22 1012.46 1012.65 1012.78 1012.86 1012.89 1012.86 1012.77 1012.61 1012.40 1012.14 1011.82 1011.47 1011.10 1010.71 1010.31 1009.90 1009.49 1009.06 1008.61 1008.11 1007.55 1006.90 1006.17
1000.62 1000.90 1001.27 1001.70 1002.19 1002.73 1003.33 1003.96 1004.64 1005.34 1006.07 1006.80 1007.52 1008.23 1008.89 1009.50 1010.06 1010.55 1010.98 1011.34 1011.64 1011.88 1012.07 1012.21 1012.30 1012.33 1012.31 1012.23 1012.09 1011.89 1011.64 1011.35 1011.02 1010.66 1010.28 1009.88 1009.48 1009.07 1008.64 1008.17 1007.65 1007.07 1006.39 1005.61
1000.72 1000.94 1001.24 1001.59 1002.01 1002.49 1003.02 1003.60 1004.22 1004.88 1005.57 1006.27 1006.97 1007.64 1008.28 1008.88 1009.42 1009.90 1010.32 1010.67 1010.97 1011.21 1011.40 1011.55 1011.64 1011.69 1011.68 1011.62 1011.50 1011.32 1011.09 1010.81 1010.50 1010.15 1009.77 1009.39 1008.98 1008.57 1008.13 1007.66 1007.13 1006.53 1005.84 1005.04
1001.00 1001.14 1001.34 1001.60 1001.93 1002.32 1002.77 1003.28 1003.85 1004.45 1005.09 1005.75 1006.41 1007.05 1007.65 1008.22 1008.73 1009.19 1009.59 1009.93 1010.22 1010.46 1010.65 1010.80 1010.91 1010.97 1010.98 1010.94 1010.84 1010.68 1010.46 1010.19 1009.88 1009.54 1009.17 1008.78 1008.38 1007.97 1007.54 1007.07 1006.56 1005.97 1005.29 1004.50
1001.31 1001.36 1001.46 1001.63 1001.87 1002.17 1002.55 1002.99 1003.49 1004.04 1004.63 1005.24 1005.85 1006.45 1007.02 1007.54 1008.02 1008.45 1008.82 1009.15 1009.42 1009.66 1009.85 1010.01 1010.13 1010.21 1010.23 1010.20 1010.11 1009.96 1009.76 1009.49 1009.19 1008.84 1008.47 1008.09 1007.70 1007.30 1006.89 1006.46 1005.99 1005.45 1004.82 1004.08
1001.51 1001.48 1001.50 1001.59 1001.75 1001.99 1002.30 1002.69 1003.14 1003.64 1004.19 1004.75 1005.32 1005.87 1006.40 1006.89 1007.33 1007.73 1008.08 1008.38 1008.64 1008.87 1009.07 1009.23 1009.35 1009.44 1009.47 1009.45 1009.37 1009.22 1009.01 1008.75 1008.44 1008.10 1007.74 1007.37 1007.00 1006.63 1006.26 1005.88 1005.47 1005.01 1004.47 1003.83
1001.51 1001.43 1001.40 1001.45 1001.56 1001.76 1002.04 1002.39 1002.80 1003.28 1003.79 1004.31 1004.85 1005.36 1005.85 1006.30 1006.71 1007.07 1007.40 1007.68 1007.93 1008.15 1008.34 1008.50 1008.63 1008.71 1008.75 1008.73 1008.64 1008.50 1008.29 1008.02 1007.72 1007.38 1007.03 1006.68 1006.34 1006.01 1005.70 1005.40 1005.08 1004.72 1004.30 1003.78
1001.31 1001.21 1001.17 1001.20 1001.31 1001.50 1001.77 1002.11 1002.52 1002.97 1003.46 1003.96 1004.46 1004.95 1005.40 1005.81 1006.18 1006.52 1006.81 1007.07 1007.30 1007.51 1007.69 1007.85 1007.97 1008.05 1008.09 1008.07 1007.98 1007.83 1007.62 1007.36 1007.06 1006.74 1006.41 1006.08 1005.79 1005.52 1005.27 1005.05 1004.83 1004.59 1004.29 1003.91
Thickness
5750 5758 5759 5757 5755 5757 5754 5755 5746 5744 5738 5741 5744 5742 5741 5739 5736 5733 5731 5729 5728 5726 5726 5726 5725 5724 5723 5722 5722 5722 5718 5715 5713 5712 5711 5709 5708 5707 5706 5706 5706 5705 5704 5703
5746 5756 5758 5754 5757 5757 5756 5757 5753 5747 5743 5754 5751 5745 5739 5736 5732 5728 5726 5725 5725 5724 5722 5721 5721 5719 5718 5717 5717 5716 5713 5709 5708 5706 5704 5702 5701 5700 5699 5699 5699 5698 5697 5696
5739 5754 5751 5740 5757 5757 5756 5760 5755 5744 5747 5751 5743 5739 5736 5734 5730 5725 5723 5721 5720 5719 5718 5717 5717 5715 5712 5712 5711 5709 5705 5703 5700 5698 5696 5695 5694 5692 5691 5691 5691 5690 5690 5689
5740 5740 5722 5752 5774 5771 5761 5761 5763 5758 5755 5751 5745 5741 5738 5735 5729 5723 5720 5717 5716 5715 5713 5713 5713 5711 5708 5707 5704 5701 5697 5695 5693 5691 5689 5688 5686 5684 5684 5684 5683 5683 5682 5682
5734 5729 5737 5752 5764 5764 5753 5750 5762 5757 5753 5749 5745 5735 5730 5733 5729 5723 5718 5715 5712 5711 5709 5708 5705 5704 5701 5699 5696 5693 5689 5686 5685 5683 5681 5679 5678 5677 5677 5676 5675 5675 5675 5673
5731 5722 5722 5749 5768 5772 5757 5738 5761 5758 5749 5743 5736 5717 5719 5728 5724 5719 5714 5711 5707 5705 5703 5700 5698 5696 5692 5689 5686 5683 5680 5678 5677 5676 5673 5671 5670 5669 5668 5667 5666 5666 5665 5664
5724 5723 5737 5756 5764 5760 5729 5738 5761 5758 5749 5741 5732 5729 5729 5725 5718 5713 5708 5704 5701 5697 5693 5691 5689 5687 5683 5679 5676 5674 5673 5670 5668 5667 5665 5664 5662 5660 5658 5657 5655 5654 5654 5653
5725 5717 5727 5753 5753 5744 5745 5759 5759 5753 5747 5739 5732 5729 5724 5717 5711 5706 5700 5697 5693 5688 5685 5683 5681 5677 5673 5669 5668 5667 5664 5661 5659 5658 5657 5655 5651 5649 5646 5643 5641 5639 5638 5638
5736 5731 5746 5753 5751 5754 5756 5751 5749 5745 5741 5734 5725 5718 5714 5708 5703 5699 5694 5690 5686 5681 5677 5675 5672 5668 5663 5661 5660 5657 5654 5651 5649 5648 5645 5643 5639 5635 5631 5628 5625 5623 5620 5619
5733 5732 5739 5743 5745 5746 5746 5743 5742 5739 5734 5727 5718 5712 5706 5701 5696 5691 5687 5683 5678 5673 5669 5665 5663 5660 5656 5654 5651 5647 5643 5641 5638 5636 5633 5629 5624 5620 5616 5612 5608 5605 5602 5600
5725 5729 5730 5732 5735 5735 5735 5734 5731 5728 5724 5718 5710 5704 5699 5693 5688 5684 5679 5675 5670 5665 5660 5657 5654 5651 5648 5644 5640 5636 5632 5629 5626 5622 5618 5614 5610 5605 5601 5597 5592 5587 5584 5581
5715 5726 5723 5722 5728 5728 5723 5721 5718 5714 5710 5707 5702 5695 5690 5685 5680 5676 5671 5667 5661 5657 5652 5648 5645 5641 5638 5634 5629 5624 5620 5616 5612 5607 5603 5599 5595 5593 5590 5584 5581 5575 5571 5566
5724 5726 5723 5720 5719 5718 5714 5711 5709 5704 5699 5695 5691 5686 5681 5675 5671 5666 5662 5657 5652 5647 5643 5639 5635 5631 5628 5623 5618 5612 5607 5603 5598 5593 5588 5584 5580 5576 5573 5572 5568 5563 5558 5554
5716 5713 5707 5707 5705 5706 5703 5701 5698 5694 5690 5685 5681 5676 5671 5665 5661 5656 5651 5647 5644 5639 5634 5630 5625 5621 5617 5612 5606 5600 5595 5590 5584 5578 5573 5569 5564 5560 5557 5553 5551 5548 5545 5541
5702 5701 5698 5697 5695 5693 5691 5688 5683 5679 5676 5672 5669 5664 5659 5653 5649 5645 5641 5638 5633 5628 5624 5620 5614 5610 5606 5600 5594 5588 5582 5576 5571 5565 5560 5555 5551 5546 5542 5538 5534 5531 5529 5527
5690 5689 5687 5683 5681 5679 5677 5674 5669 5666 5663 5660 5656 5652 5648 5644 5639 5635 5631 5627 5621 5617 5613 5609 5604 5599 5594 5588 5581 5576 5570 5565 5559 5552 5547 5542 5537 5533 5528 5523 5519 5515 5513 5511
5675 5673 5672 5669 5668 5666 5665 5662 5659 5655 5652 5648 5645 5641 5637 5633 5628 5623 5619 5616 5612 5607 5603 5598 5593 5588 5582 5576 5569 5563 5557 5552 5546 5540 5534 5529 5524 5519 5514 5510 5506 5503 5500 5499
5670 5667 5665 5662 5659 5656 5653 5651 5648 5644 5640 5638 5634 5630 5625 5620 5616 5612 5609 5605 5601 5596 5592 5587 5582 5576 5570 5563 5557 5551 5544 5538 5532 5526 5521 5516 5511 5507 5502 5497 5494 5491 5489 5488
5658 5655 5653 5651 5649 5645 5641 5638 5636 5633 5630 5626 5622 5617 5614 5610 5606 5602 5598 5593 5588 5582 5579 5575 5569 5563 5557 5550 5544 5537 5531 5525 5519 5514 5508 5504 5499 5495 5489 5485 5481 5478 5476 5476
5644 5642 5640 5638 5636 5633 5629 5626 5624 5621 5618 5614 5610 5605 5601 5598 5594 5590 5586 5581 5576 5572 5568 5562 5556 5549 5543 5536 5530 5523 5516 5510 5505 5500 5495 5491 5486 5482 5478 5474 5470 5468 5466 5465
5629 5628 5626 5623 5621 5620 5617 5614 5611 5608 5605 5602 5597 5593 5589 5586 5582 5577 5572 5567 5565 5561 5555 5550 5543 5536 5530 5523 5517 5509 5503 5497 5492 5487 5483 5479 5474 5470 5466 5463 5460 5457 5456 5455
5614 5613 5611 5610 5608 5606 5604 5602 5599 5595 5592 5589 5585 5581 5577 5572 5569 5565 5561 5556 5552 5548 5542 5536 5529 5523 5516 5509 5503 5497 5491 5486 5481 5476 5472 5467 5463 5459 5456 5453 5450 5448 5447 5445
5600 5599 5597 5596 5594 5592 5590 5588 5586 5583 5579 5576 5572 5568 5563 5559 5555 5550 5547 5544 5539 5534 5528 5522 5516 5509 5503 5496 5490 5485 5480 5475 5471 5466 5462 5457 5453 5450 5446 5444 5442 5440 5438 5437
5585 5584 5583 5582 5580 5578 5576 5574 5572 5570 5566 5563 5559 5555 5550 5545 5542 5539 5534 5531 5526 5519 5513 5508 5502 5496 5490 5484 5479 5474 5470 5466 5461 5457 5452 5448 5445 5442 5439 5436 5434 5432 5431 5431
5569 5569 5568 5567 5565 5564 5562 5560 5558 5555 5551 5548 5545 5541 5537 5532 5528 5525 5520 5516 5511 5505 5500 5495 5491 5485 5479 5474 5469 5465 5460 5456 5451 5447 5443 5439 5436 5434 5432 5429 5427 5425 5425 5424
5553 5553 5552 5552 5552 5549 5547 5545 5542 5539 5536 5532 5529 5526 5522 5518 5514 5510 5505 5501 5497 5492 5486 5482 5477 5473 5469 5464 5459 5454 5450 5446 5441 5437 5434 5431 5428 5426 5424 5423 5421 5420 5419 5418
5538 5537 5536 5536 5535 5534 5532 5530 5527 5524 5520 5517 5514 5511 5507 5503 5499 5494 5490 5486 5482 5478 5474 5470 5466 5461 5457 5453 5448 5444 5440 5436 5432 5429 5426 5423 5421 5419 5418 5417 5415 5414 5412 5412